This is the latest recevied weather packets stored in our database for station/object ON7SD-5. If no packets are shown the sender has not sent any weather packets the latest 1 day(s).
| Time | Temp. | Humidity | Pressure | Rain* | Wind** | Luminosity | Snow |
|---|---|---|---|---|---|---|---|
| 1777960627 | 11.67° C | 86% | 1010 hPa | 0 mm | 0.45 m/s, 42° | 56 W/m² | - |
| 1777960327 | 11.67° C | 86% | 1010 hPa | 0 mm | 0.89 m/s, 42° | 60 W/m² | - |
| 1777960027 | 11.67° C | 86% | 1010 hPa | 0 mm | 0.45 m/s, 31° | 54 W/m² | - |
| 1777959727 | 11.67° C | 86% | 1010 hPa | 0 mm | 0.45 m/s, 30° | 53 W/m² | - |
| 1777959427 | 11.67° C | 87% | 1010.1 hPa | 0 mm | 0.89 m/s, 30° | 53 W/m² | - |
| 1777959127 | 11.67° C | 86% | 1010.1 hPa | 0 mm | 0.89 m/s, 30° | 46 W/m² | - |
| 1777958827 | 11.67° C | 86% | 1010.2 hPa | 0 mm | 0.89 m/s, 16° | 46 W/m² | - |
| 1777958527 | 11.67° C | 86% | 1010.2 hPa | 0 mm | 0.45 m/s, 16° | 37 W/m² | - |
| 1777958227 | 11.67° C | 88% | 1010.1 hPa | 0 mm | 0.45 m/s, 15° | 33 W/m² | - |
| 1777957927 | 11.67° C | 88% | 1010.2 hPa | 0 mm | 0.89 m/s, 14° | 30 W/m² | - |
| 1777957627 | 11.67° C | 88% | 1010.1 hPa | 0 mm | 0.89 m/s, 15° | 19 W/m² | - |
| 1777957327 | 11.67° C | 88% | 1010.1 hPa | 0 mm | 0.45 m/s, 15° | 19 W/m² | - |
| 1777957027 | 11.67° C | 88% | 1010.1 hPa | 0 mm | 0.45 m/s, 15° | 14 W/m² | - |
| 1777956727 | 11.67° C | 88% | 1010.1 hPa | 0 mm | 0.45 m/s, 15° | 11 W/m² | - |
| 1777956427 | 11.67° C | 88% | 1010 hPa | 0 mm | 1.34 m/s, 15° | 11 W/m² | - |
| 1777956127 | 11.67° C | 88% | 1010 hPa | 0 mm | 1.34 m/s, 15° | 9 W/m² | - |
| 1777955827 | 11.67° C | 89% | 1010 hPa | 0 mm | 1.34 m/s, 16° | 5 W/m² | - |
| 1777955527 | 11.67° C | 89% | 1010.1 hPa | 0 mm | 0.89 m/s, 19° | 5 W/m² | - |
| 1777955227 | 11.67° C | 89% | 1010.1 hPa | 0 mm | 1.34 m/s, 18° | 0 W/m² | - |
| 1777954927 | 11.67° C | 89% | 1010.2 hPa | 0 mm | 0.89 m/s, 18° | 0 W/m² | - |
| 1777954627 | 11.67° C | 89% | 1010.2 hPa | 0 mm | 0.45 m/s, 18° | 0 W/m² | - |
| 1777954327 | 11.67° C | 89% | 1010.2 hPa | 0 mm | 0.45 m/s, 18° | 0 W/m² | - |
| 1777954027 | 11.67° C | 89% | 1010.3 hPa | 0 mm | 0.45 m/s, 18° | 0 W/m² | - |
| 1777953727 | 11.67° C | 89% | 1010.4 hPa | 0 mm | 0.89 m/s, 16° | 0 W/m² | - |
| 1777953427 | 11.67° C | 89% | 1010.4 hPa | 0 mm | 0.89 m/s, 16° | 0 W/m² | - |
* Rain latest hour (hover to see other rain measurements)
** Current wind speed in m/s (hover to see current wind gust speed)